TJS-21 (66586 NORAD) Tracking and Keplerian Element Data

This shows tracking and keplerian element data for the satellite.

Feedback or suggestion? Click here.




ElementValue
Catalog66586
NameTJS-21
Epoch Orbit55
Epoch Day352.70706567
Epoch Year2025
RAAN161.7218
Inclination63.2733
Eccentricity0.6806869
Argument of Perigee269.7428
Mean Anonmoly18.6663
Mean Motion2.00580748
Decay Rate1.084E-05
L11 66586U 25269A 25352.70706567 .00001084 00000+0 -59507-1 0 9990
L22 66586 63.2733 161.7218 6806869 269.7428 18.6663 2.00580748 558



Live tracking and technical data element details for TJS-21 (NORAD 66586). TJS-21 can be tracked NOW for your location showing map with azimuth and elevation plus other details from your city location.







IsCatalogInMostPopularTable: catalog: 66586, numindb: 14
Update: records affected: 1



GetName: 66586 TJS-21

Hit Count: updated at: Sat, 11 Apr 2026 21:39:38 GMT